This is the latest recevied weather packets stored in our database for station/object KD7CTY. If no packets are shown the sender has not sent any weather packets the latest 10 day(s).
| Time | Temp. | Humidity | Pressure | Rain* | Wind** | Luminosity | Snow |
|---|---|---|---|---|---|---|---|
| 1788136077 | 69° F | 58% | 763.3 mmHg | 0 in | - | 355 W/m² | - |
| 1788135777 | 69° F | 58% | 763.3 mmHg | 0 in | - | 152 W/m² | - |
| 1788135473 | 69° F | 58% | 763.3 mmHg | 0 in | - | 218 W/m² | - |
| 1788135167 | 69° F | 59% | 763.3 mmHg | 0 in | - | 148 W/m² | - |
| 1788134864 | 70° F | 58% | 763.3 mmHg | 0 in | - | 159 W/m² | - |
| 1788134559 | 70° F | 57% | 763.3 mmHg | 0 in | - | 416 W/m² | - |
| 1788134258 | 68° F | 59% | 763.3 mmHg | 0 in | - | 459 W/m² | - |
| 1788133953 | 68° F | 61% | 763.6 mmHg | 0 in | - | 175 W/m² | - |
| 1788133648 | 68° F | 59% | 763.4 mmHg | 0 in | - | 166 W/m² | - |
| 1788133344 | 68° F | 60% | 763.5 mmHg | 0 in | - | 177 W/m² | - |
| 1788133039 | 68° F | 60% | 763.6 mmHg | 0 in | - | 185 W/m² | - |
| 1788132735 | 68° F | 59% | 763.5 mmHg | 0 in | - | 142 W/m² | - |
| 1788132430 | 68° F | 59% | 763.5 mmHg | 0 in | - | 149 W/m² | - |
| 1788132126 | 68° F | 60% | 763.6 mmHg | 0 in | - | 203 W/m² | - |
| 1788131822 | 68° F | 60% | 763.8 mmHg | 0 in | - | 192 W/m² | - |
| 1788131522 | 68° F | 60% | 763.6 mmHg | 0 in | - | 185 W/m² | - |
| 1788131216 | 68° F | 60% | 763.6 mmHg | 0 in | - | 184 W/m² | - |
| 1788130911 | 68° F | 60% | 763.6 mmHg | 0 in | - | 202 W/m² | - |
| 1788130606 | 68° F | 60% | 763.6 mmHg | 0 in | - | 193 W/m² | - |
| 1788130300 | 68° F | 60% | 763.7 mmHg | 0 in | - | 210 W/m² | - |
| 1788129999 | 68° F | 61% | 763.7 mmHg | 0 in | - | 198 W/m² | - |
| 1788129696 | 68° F | 62% | 763.6 mmHg | 0 in | - | 219 W/m² | - |
| 1788129392 | 69° F | 61% | 763.6 mmHg | 0 in | - | 208 W/m² | - |
| 1788129086 | 71° F | 59% | 763.7 mmHg | 0 in | - | 257 W/m² | - |
| 1788128781 | 71° F | 60% | 763.8 mmHg | 0 in | - | 684 W/m² | - |
* Rain latest hour (hover to see other rain measurements)
** Current wind speed in m/s (hover to see current wind gust speed)